Wind_Speed
9 8 8 7 8 9 9 6 6 7 7 6 6 6 7 8 7 6 7 5 5 5 5 6 7 6 6 6 6 6 6 6 6 7 7 6 7 7 7 7 7 7 7 7 7 6 6 5 5
8 8 6 6 8 9 6 6 9 8 8 8 7 8 9 9 8 8 7 6 5 6 6 7 7 7 7 6 6 7 7 6 6 6 6 5 5 6 6 7 6 6 5 5 5 5 5 5 5
8 7 6 6 7 7 5 8 10 10 9 8 8 8 9 9 9 8 8 7 6 7 7 8 8 8 8 7 7 7 7 7 6 6 5 5 5 5 5 5 5 4 4 4 4 4 4 5 5
7 6 5 4 4 2 7 10 11 11 10 9 9 9 10 10 9 8 8 8 8 8 9 9 9 9 9 8 8 8 8 7 7 6 6 5 5 4 4 4 4 4 3 3 4 4 4 4 4
6 6 5 5 4 4 9 12 11 10 10 10 10 10 11 10 10 9 9 8 8 9 10 9 10 10 10 10 10 9 9 8 8 7 6 6 5 4 4 3 3 3 3 3 3 3 4 4 4
6 4 4 5 4 7 12 12 10 9 10 11 11 11 10 11 11 10 10 9 8 8 10 10 10 10 11 11 11 10 10 9 9 8 7 7 6 5 4 3 3 3 3 3 2 3 3 3 3
7 4 3 5 6 8 13 13 11 10 11 11 11 12 10 11 11 11 11 10 8 9 9 11 11 11 11 12 12 11 11 10 10 9 8 7 7 6 4 4 3 3 3 2 2 3 3 3 3
7 4 2 3 8 10 14 17 12 10 12 10 11 13 11 11 11 11 11 11 9 9 10 10 11 12 12 12 13 13 12 12 11 10 10 8 7 6 5 5 4 4 3 3 3 3 3 3 3
6 5 3 3 7 11 14 17 13 11 12 11 12 13 12 12 11 12 12 11 10 9 10 11 12 12 13 13 14 13 13 12 12 11 10 10 8 7 6 6 5 4 4 4 3 3 3 3 3
7 6 4 4 6 10 12 14 12 12 13 14 13 12 12 13 12 12 12 12 11 11 11 12 13 13 13 14 15 14 14 13 13 12 12 11 10 8 7 7 6 5 5 4 4 4 4 4 4
8 8 7 8 11 13 13 13 11 12 14 15 16 13 13 13 13 13 13 13 12 12 12 13 14 14 14 15 16 15 15 15 14 14 13 12 11 9 8 8 7 6 6 5 5 5 5 5 5
11 10 12 12 14 15 14 13 11 13 15 15 16 14 14 14 14 15 14 13 12 12 13 14 15 15 15 16 17 17 17 16 15 14 14 13 12 10 9 9 9 8 7 6 6 6 6 6 5
13 13 13 14 15 15 14 13 14 14 16 17 16 16 16 15 15 15 15 13 13 13 13 13 15 16 16 16 16 17 18 17 16 15 15 14 12 11 10 10 9 9 8 7 6 6 6 6 6
14 16 15 14 15 15 14 14 14 14 15 17 16 17 17 16 16 15 15 14 14 14 13 13 14 15 15 17 17 17 18 18 17 16 15 14 13 11 10 10 10 9 8 7 7 7 6 6 5
15 15 15 14 15 14 14 14 15 14 14 16 17 17 17 16 16 15 15 15 14 14 14 14 15 16 15 16 17 18 18 18 18 17 16 14 14 13 11 10 10 10 9 8 7 7 7 6 5
14 14 13 12 13 14 14 14 14 15 13 15 16 17 17 17 16 16 16 15 15 15 15 15 15 16 17 16 17 17 17 17 18 18 17 16 14 14 12 10 10 9 9 8 7 7 7 6 5
12 11 11 11 12 14 15 15 13 15 14 15 16 17 18 17 17 16 16 15 16 15 15 16 16 16 17 17 17 18 17 17 17 18 18 16 15 14 13 11 10 9 9 8 7 7 6 6 5
11 10 12 13 12 15 15 16 15 15 15 16 17 18 17 17 16 16 15 16 16 15 15 15 16 17 17 17 17 18 17 17 17 17 18 17 15 14 13 12 11 10 9 8 7 7 6 5 5
14 13 14 13 14 16 17 16 15 15 16 17 18 18 17 17 16 15 16 16 15 14 13 14 15 16 17 16 17 17 17 17 17 17 17 17 16 14 14 13 12 11 10 9 8 7 6 5 5
17 17 16 14 15 17 17 15 14 16 18 18 18 18 17 17 17 15 16 15 14 14 13 13 14 15 16 16 17 18 17 16 15 17 17 17 16 15 14 14 13 12 11 10 9 8 7 6 5
19 18 16 14 16 16 16 15 15 15 16 17 17 17 17 18 16 15 15 14 13 13 12 14 15 15 15 15 16 18 17 16 15 16 17 17 17 17 16 15 14 13 12 11 10 9 7 6 5
19 16 17 17 17 15 14 15 15 16 18 17 16 16 16 17 17 16 14 14 13 12 12 13 13 14 14 14 15 17 17 17 17 16 17 18 17 16 16 15 15 13 12 11 10 9 8 7 5
18 16 18 19 18 15 14 15 15 16 17 17 15 16 16 16 16 15 14 13 12 10 10 11 12 12 13 14 15 17 17 17 17 16 17 18 18 16 16 15 15 13 12 11 10 9 8 7 6
18 17 17 15 15 15 16 16 14 16 16 15 15 16 16 16 15 15 13 11 10 10 9 10 11 12 12 13 14 16 17 17 17 16 17 18 18 18 17 16 15 14 13 12 11 10 9 8 7
19 17 15 14 14 14 14 15 14 17 17 19 17 17 16 15 14 13 11 9 8 8 8 8 10 10 11 12 14 16 17 17 17 17 18 19 19 18 17 17 16 15 14 13 12 11 10 9 8
18 17 16 15 14 14 13 13 13 16 17 19 18 16 15 14 13 12 11 9 9 9 8 9 9 9 10 11 14 15 17 17 17 17 17 18 19 19 19 18 17 16 14 14 13 12 11 10 9
18 18 16 15 15 15 13 11 13 15 17 18 18 16 14 13 13 11 11 10 9 9 9 9 9 9 10 11 12 14 16 16 17 17 18 18 18 19 19 18 17 16 15 15 14 13 12 11 11
19 17 17 18 18 16 14 13 15 16 15 16 17 16 14 13 13 11 10 11 10 9 9 9 10 10 11 12 13 13 14 16 17 18 18 18 18 18 19 19 18 18 17 16 15 14 13 12 12
19 19 19 19 19 16 16 16 15 16 15 15 18 18 16 14 13 12 11 11 11 10 9 9 9 10 10 11 12 13 14 15 16 17 18 17 17 18 19 19 19 18 17 16 16 15 14 13 13
19 20 20 21 21 20 18 17 16 17 16 15 17 18 16 13 14 13 11 11 11 10 9 9 9 9 9 10 11 12 13 13 15 16 17 17 17 17 18 19 19 18 17 17 16 15 15 14 14
Wind_Direction
14 19 24 29 39 42 38 14 322 317 317 311 312 312 306 302 302 294 293 273 240 220 211 204 195 190 186 188 186 182 176 170 163 154 148 142 138 135 132 129 126 124 121 121 120 116 114 109 102
6 9 11 20 39 41 26 322 309 307 315 314 311 310 303 307 306 294 289 278 250 232 219 213 206 200 198 199 196 191 187 183 180 171 162 152 146 144 138 135 132 129 128 128 128 122 120 118 111
355 355 4 17 36 27 342 300 302 305 308 310 306 305 307 306 305 299 290 276 256 241 227 219 214 211 207 207 205 203 200 195 194 189 177 168 161 154 148 146 144 138 134 133 138 135 130 129 126
348 344 357 20 49 1 293 291 296 301 308 311 309 306 309 309 306 303 293 279 261 245 234 226 220 217 213 215 214 211 210 207 205 202 190 182 179 167 158 156 158 154 146 144 147 140 135 135 135
335 337 356 10 17 317 287 289 296 305 308 309 308 306 309 313 306 301 295 288 270 251 237 232 226 220 218 220 219 218 218 217 214 210 202 195 190 182 175 173 167 165 162 157 155 147 144 144 139
322 333 353 339 319 292 287 295 295 297 300 304 300 303 309 307 303 299 294 289 280 259 242 236 231 226 224 225 224 223 223 221 220 215 210 206 201 197 194 191 183 178 171 164 165 161 158 155 151
312 319 326 312 297 274 284 291 288 289 290 293 298 300 308 306 302 298 294 289 283 263 249 240 236 232 227 226 226 226 226 224 223 220 215 213 211 207 205 203 200 200 197 188 182 175 176 172 168
299 298 295 298 289 273 277 289 288 283 289 291 292 294 303 305 301 297 292 289 282 263 253 242 238 233 229 226 226 227 227 227 225 224 220 217 217 217 217 214 216 217 214 207 196 190 188 187 185
285 271 247 229 266 272 276 288 290 287 287 288 288 294 306 304 300 294 290 289 285 267 251 242 237 233 231 228 225 226 229 229 228 228 226 224 224 224 224 224 230 233 226 218 209 205 199 195 196
266 258 247 249 255 268 270 279 284 290 293 295 290 296 302 305 300 294 290 287 283 270 253 241 235 234 234 231 227 228 229 230 230 231 230 228 229 231 229 229 233 238 239 231 223 217 211 207 213
256 251 243 253 254 252 265 272 274 285 288 291 293 296 301 302 299 296 293 286 280 269 256 246 238 237 236 232 229 229 232 231 232 233 232 230 232 235 237 236 237 241 244 239 228 226 223 219 220
262 251 250 249 257 255 255 265 270 275 277 281 289 297 301 300 299 297 293 287 282 272 259 248 240 241 240 236 231 232 233 235 234 235 234 235 236 237 241 241 240 241 243 241 237 228 224 220 221
266 262 258 258 259 264 261 259 265 271 277 283 286 292 296 295 296 295 292 286 284 276 262 250 241 241 242 239 237 234 229 232 234 236 236 238 239 243 244 242 242 242 240 238 232 225 220 219 221
261 263 260 261 266 266 266 264 265 266 269 279 287 294 296 295 294 294 292 287 282 276 263 252 245 241 242 243 242 233 229 228 232 237 239 240 242 245 244 245 244 239 238 239 230 226 221 217 221
257 259 262 263 267 269 270 267 266 266 271 282 291 296 297 295 293 293 290 286 282 273 265 257 246 242 244 245 243 234 231 229 231 234 240 244 244 245 244 245 244 238 239 238 233 225 216 213 219
256 260 266 270 270 270 272 272 271 273 279 284 289 295 297 295 293 291 291 288 281 274 266 258 247 245 244 243 239 236 234 232 231 234 239 242 246 243 241 242 241 238 239 235 227 217 212 215 223
255 263 273 270 268 270 274 277 276 280 285 287 288 292 294 294 292 290 291 292 287 278 272 259 248 245 242 241 237 232 234 232 234 235 236 239 240 240 241 240 241 237 233 228 217 210 211 215 222
254 257 260 258 259 264 271 274 276 278 288 289 291 293 293 295 292 289 289 289 290 284 271 258 250 243 243 242 237 233 236 238 238 237 235 234 235 238 239 237 238 230 225 218 213 211 211 213 217
238 244 249 249 248 256 262 266 268 273 279 282 288 291 293 295 294 291 289 287 287 284 272 261 253 246 246 243 237 237 239 240 237 235 235 233 232 233 234 234 232 222 217 216 214 212 209 211 215
240 240 243 245 247 257 264 266 262 266 274 283 288 291 293 291 295 294 292 290 286 282 271 260 256 252 252 246 238 235 235 236 235 235 233 231 230 230 230 228 225 219 216 215 212 211 212 215 218
239 238 239 243 248 259 266 267 262 257 272 281 286 289 290 290 294 295 292 289 282 279 271 263 258 255 254 247 237 234 230 230 233 237 234 230 230 230 228 225 221 216 216 215 214 214 214 217 219
237 236 236 240 247 253 261 269 273 272 274 279 284 289 290 290 292 293 290 284 275 271 264 261 258 258 254 245 236 233 230 230 233 236 233 229 227 226 224 221 217 215 215 216 216 217 219 218 212
231 232 237 240 242 241 248 260 267 272 277 282 290 293 292 293 292 292 289 279 270 263 261 258 256 256 254 245 234 232 231 231 232 233 230 226 224 222 219 218 215 214 216 214 214 219 218 215 212
230 231 239 240 239 242 245 250 259 271 280 280 285 290 292 292 292 291 285 275 266 259 261 258 256 251 250 242 235 232 230 231 232 231 226 224 220 217 216 217 214 214 216 217 218 220 218 218 219
228 227 231 241 245 247 240 239 249 266 276 280 280 288 288 288 290 288 278 271 266 260 261 260 257 248 245 245 237 230 229 230 232 229 224 221 218 217 216 214 214 214 218 219 219 222 222 223 224
230 226 224 236 250 259 250 240 240 258 273 281 284 286 285 285 286 283 273 268 265 259 262 260 255 249 245 247 238 230 230 229 228 225 222 219 216 217 215 214 214 215 218 219 221 225 225 226 229
226 223 220 237 253 265 264 249 235 250 268 278 285 285 287 289 286 282 274 266 262 260 260 254 250 249 249 247 238 233 229 228 225 222 222 219 217 216 216 215 214 216 219 222 224 226 228 230 231
218 224 219 227 243 252 254 245 244 251 262 270 282 292 292 286 282 280 274 266 261 260 260 255 252 251 253 247 235 231 228 224 221 218 218 215 214 215 218 215 217 219 224 226 227 227 230 232 234
219 217 220 227 234 245 254 248 250 259 254 269 279 288 291 286 282 277 270 264 260 259 256 252 251 251 249 240 232 226 225 223 221 217 215 213 214 217 220 221 221 222 225 226 227 225 228 231 235
226 222 223 229 232 235 245 256 263 265 262 263 277 286 288 282 282 275 266 259 259 257 256 257 253 249 240 232 227 223 219 220 219 214 212 214 216 219 223 224 223 222 224 226 227 224 229 234 239
Height
5888 5887 5886 5886 5886 5886 5885 5886 5886 5884 5883 5882 5881 5880 5878 5878 5878 5879 5876 5876 5877 5877 5878 5878 5879 5880 5881 5882 5882 5882 5883 5883 5884 5884 5884 5885 5885 5885 5885 5886 5886 5887 5887 5888 5888 5889 5889 5889 5889
5888 5888 5887 5887 5886 5885 5886 5886 5886 5884 5883 5881 5881 5880 5878 5877 5877 5876 5875 5876 5877 5877 5878 5878 5879 5880 5881 5882 5882 5883 5884 5884 5884 5885 5885 5885 5886 5886 5887 5887 5888 5888 5888 5889 5889 5890 5890 5890 5890
5888 5887 5887 5886 5886 5886 5888 5887 5885 5883 5882 5881 5880 5879 5878 5877 5876 5876 5875 5875 5876 5876 5877 5878 5879 5880 5881 5882 5882 5883 5884 5884 5885 5885 5886 5886 5887 5887 5888 5888 5888 5889 5889 5890 5890 5890 5891 5891 5891
5888 5887 5886 5886 5885 5887 5889 5887 5885 5883 5882 5880 5879 5878 5877 5877 5876 5875 5874 5875 5875 5876 5876 5877 5878 5879 5880 5881 5882 5883 5884 5885 5885 5886 5886 5886 5887 5888 5888 5888 5889 5889 5890 5890 5891 5891 5891 5892 5892
5887 5887 5886 5885 5886 5888 5886 5886 5884 5882 5881 5880 5878 5877 5876 5875 5875 5874 5873 5874 5874 5875 5875 5876 5877 5879 5880 5881 5882 5883 5884 5885 5885 5886 5886 5887 5887 5888 5888 5889 5889 5890 5890 5891 5891 5892 5892 5892 5893
5886 5886 5885 5885 5886 5888 5886 5885 5883 5881 5880 5879 5877 5876 5875 5875 5874 5873 5872 5872 5873 5873 5874 5875 5876 5877 5879 5880 5881 5882 5883 5884 5885 5886 5886 5887 5888 5888 5888 5889 5890 5890 5891 5891 5892 5892 5892 5893 5893
5886 5885 5884 5885 5886 5887 5885 5883 5882 5881 5879 5878 5876 5874 5874 5874 5873 5872 5871 5871 5872 5872 5873 5873 5875 5876 5877 5879 5880 5882 5883 5884 5885 5885 5886 5887 5888 5888 5888 5889 5890 5890 5891 5892 5892 5892 5893 5893 5894
5883 5884 5884 5885 5887 5886 5883 5882 5880 5879 5878 5876 5875 5874 5872 5873 5872 5871 5870 5869 5870 5870 5871 5872 5873 5874 5876 5878 5879 5881 5882 5883 5884 5885 5886 5887 5887 5888 5888 5889 5890 5891 5891 5892 5892 5892 5893 5893 5894
5881 5883 5882 5884 5886 5884 5882 5880 5879 5877 5876 5874 5874 5873 5872 5871 5870 5869 5868 5868 5868 5869 5869 5870 5871 5873 5874 5876 5878 5879 5881 5882 5883 5885 5886 5887 5887 5888 5888 5889 5890 5890 5891 5891 5892 5893 5893 5893 5894
5879 5880 5881 5882 5883 5882 5880 5879 5877 5876 5874 5873 5871 5870 5870 5869 5868 5867 5867 5866 5866 5866 5866 5868 5869 5871 5873 5874 5876 5878 5879 5881 5882 5884 5885 5886 5887 5888 5888 5889 5890 5890 5891 5891 5892 5892 5893 5893 5894
5877 5878 5878 5880 5881 5880 5879 5877 5875 5875 5873 5872 5869 5868 5868 5867 5867 5866 5865 5864 5864 5864 5864 5866 5867 5869 5870 5872 5874 5876 5878 5879 5881 5883 5884 5885 5886 5887 5888 5888 5889 5890 5890 5891 5892 5892 5893 5893 5894
5874 5875 5875 5876 5877 5876 5876 5875 5874 5873 5872 5870 5868 5867 5866 5866 5865 5864 5863 5862 5862 5861 5862 5863 5864 5866 5868 5870 5872 5874 5876 5878 5879 5881 5882 5884 5885 5886 5887 5888 5889 5889 5890 5891 5891 5892 5892 5893 5894
5870 5871 5872 5872 5872 5872 5872 5872 5872 5871 5869 5867 5865 5864 5864 5863 5862 5861 5860 5860 5860 5859 5860 5861 5862 5863 5865 5867 5869 5871 5873 5876 5877 5879 5881 5882 5884 5885 5886 5887 5888 5888 5889 5890 5890 5891 5891 5892 5893
5867 5867 5868 5869 5869 5869 5869 5869 5869 5868 5867 5865 5864 5862 5862 5861 5860 5859 5858 5857 5857 5857 5857 5858 5859 5860 5862 5864 5866 5868 5870 5873 5875 5877 5879 5881 5882 5883 5884 5885 5886 5887 5888 5889 5889 5890 5891 5892 5892
5863 5864 5865 5865 5866 5866 5866 5866 5865 5864 5864 5863 5862 5860 5859 5858 5857 5856 5855 5854 5854 5854 5854 5855 5856 5857 5859 5861 5863 5865 5867 5870 5873 5875 5877 5879 5880 5882 5883 5884 5885 5886 5887 5888 5889 5889 5890 5891 5892
5859 5860 5861 5862 5862 5863 5865 5864 5862 5860 5860 5861 5859 5858 5857 5855 5854 5853 5852 5851 5850 5851 5851 5852 5853 5855 5856 5858 5860 5862 5865 5867 5870 5872 5874 5876 5878 5880 5882 5883 5884 5885 5886 5887 5888 5889 5890 5890 5891
5855 5857 5858 5860 5861 5861 5861 5861 5860 5858 5858 5857 5856 5855 5854 5853 5851 5850 5849 5849 5847 5847 5848 5848 5850 5851 5853 5855 5857 5860 5862 5864 5867 5870 5872 5874 5876 5878 5880 5882 5883 5884 5885 5886 5887 5888 5889 5890 5891
5853 5855 5857 5858 5859 5859 5858 5858 5857 5855 5855 5854 5853 5852 5851 5850 5848 5847 5847 5846 5844 5844 5845 5845 5846 5848 5850 5852 5854 5857 5859 5862 5864 5867 5869 5871 5874 5876 5878 5880 5881 5883 5884 5885 5886 5887 5888 5889 5890
5850 5852 5854 5856 5857 5856 5856 5856 5855 5854 5853 5852 5851 5850 5849 5847 5846 5845 5844 5843 5842 5841 5842 5842 5843 5845 5847 5849 5851 5854 5856 5859 5861 5864 5867 5869 5871 5874 5876 5878 5880 5881 5883 5884 5886 5887 5888 5888 5889
5846 5848 5850 5851 5852 5853 5852 5852 5852 5851 5850 5849 5848 5846 5845 5844 5843 5842 5840 5839 5839 5838 5839 5840 5841 5842 5844 5846 5848 5851 5853 5856 5858 5861 5864 5866 5869 5872 5874 5876 5878 5880 5882 5883 5885 5886 5887 5888 5889
5842 5844 5847 5848 5849 5849 5849 5848 5847 5846 5845 5845 5844 5844 5842 5841 5840 5839 5837 5836 5836 5836 5836 5837 5838 5840 5841 5843 5845 5848 5851 5854 5856 5859 5861 5864 5866 5869 5871 5874 5876 5878 5880 5882 5883 5885 5886 5887 5888
5837 5840 5842 5844 5845 5846 5847 5845 5844 5843 5841 5840 5839 5840 5839 5838 5837 5835 5834 5833 5833 5833 5833 5834 5836 5837 5839 5840 5843 5845 5848 5851 5854 5856 5859 5861 5864 5866 5869 5871 5874 5876 5878 5880 5882 5884 5885 5886 5887
5833 5836 5837 5839 5840 5841 5843 5842 5842 5840 5837 5835 5835 5836 5835 5835 5834 5832 5831 5830 5830 5830 5831 5832 5833 5834 5836 5838 5840 5842 5846 5848 5851 5853 5856 5858 5862 5864 5867 5869 5872 5875 5877 5879 5881 5883 5884 5885 5886
5829 5832 5833 5834 5836 5837 5839 5839 5838 5836 5835 5832 5832 5834 5833 5832 5831 5829 5828 5828 5828 5828 5829 5830 5831 5832 5833 5835 5837 5839 5842 5845 5848 5850 5853 5856 5859 5862 5865 5868 5870 5873 5875 5877 5879 5881 5883 5884 5885
5825 5828 5830 5831 5832 5833 5833 5834 5835 5834 5833 5831 5830 5830 5830 5829 5828 5827 5826 5826 5826 5827 5827 5828 5829 5830 5831 5832 5834 5836 5839 5842 5845 5847 5850 5853 5857 5860 5863 5866 5869 5871 5873 5876 5878 5880 5881 5882 5884
5821 5825 5827 5829 5829 5829 5828 5830 5831 5830 5830 5829 5828 5827 5827 5827 5826 5825 5825 5824 5825 5825 5825 5826 5827 5828 5829 5830 5832 5834 5836 5839 5842 5844 5847 5850 5854 5858 5861 5863 5866 5869 5871 5874 5876 5878 5879 5881 5882
5818 5820 5824 5826 5826 5826 5826 5827 5827 5826 5827 5827 5825 5825 5824 5824 5823 5823 5823 5823 5823 5823 5823 5824 5825 5826 5827 5828 5829 5831 5834 5836 5839 5842 5845 5848 5851 5854 5858 5861 5864 5867 5869 5872 5874 5875 5877 5879 5880
5815 5817 5820 5822 5822 5823 5824 5823 5822 5822 5823 5823 5823 5822 5822 5822 5821 5821 5821 5821 5821 5821 5821 5822 5822 5823 5824 5825 5827 5829 5831 5834 5836 5839 5842 5846 5849 5852 5855 5858 5861 5864 5867 5869 5871 5873 5875 5876 5878
5811 5814 5816 5818 5819 5821 5820 5821 5818 5818 5818 5819 5819 5819 5819 5819 5819 5818 5818 5819 5819 5819 5819 5820 5820 5821 5822 5823 5824 5827 5829 5832 5834 5837 5840 5843 5846 5849 5852 5855 5858 5861 5863 5866 5868 5870 5872 5874 5876
5807 5809 5812 5814 5815 5816 5817 5819 5815 5815 5814 5814 5815 5816 5815 5815 5816 5816 5816 5817 5817 5818 5818 5818 5819 5819 5820 5821 5823 5825 5827 5830 5832 5835 5838 5841 5844 5847 5850 5852 5855 5857 5860 5862 5865 5867 5869 5871 5873